SKYNET 5D

Last updated on Fri Oct 24 2025 00:02:49 GMT+0000 (Coordinated Universal Time)

1 39034U 12075A 25296.49350314 .00000110 00000+0 00000+0 0 9997 2 39034 0.0843 14.5841 0004244 205.6691 42.3272 1.00272593 46786
UTC large
Height (km)
Speed (km/s)
/
Latitude / Longitude
Inclination (degrees)
Orbital Period (minutes)
Azimuth
Elevation
Range (km)
Doppler Factor

Next 0 passes for location: London (51.5072 / 0.1276)

Sorry there are no passes over London.